User: anonymous   Login
Location: Caltech
(34.1382°N, 118.1253°W)
Time: 12:41:53
(UTC-08:00)
Language:

HO-68 - Orbit

View from above orbital plane
View from above orbital plane
View from above satellite
View from above satellite

Ground track
Ground track

The orbit data is extracted from the following two-line orbital elements,

1 36122U 09072B   17347.48423080 -.00000018  00000-0  63515-4 0  9997
2 36122 100.0874   5.7307 0007548 176.6156 183.5010 13.16342454384213
Epoch (UTC): 13 December 2017 11:37:17
Eccentricity: 0.0007548
inclination: 100.0874°
perigee height: 1193 km
apogee height: 1204 km
right ascension of ascending node: 5.7307°
argument of perigee: 176.6156°
revolutions per day: 13.16342454
mean anomaly at epoch: 183.5010°
orbit number at epoch: 38421

The dashed part of the orbit path shows where the satellite is in the earth's shadow,  

DLR